EHI
0 0 0 0 0 0 0 0 0 0 0 0 0 0 0 0 0 0 0 0 0 0 0 0 0 0 0 0 0 0 0 0 0 0 0 0 0 0 0 0 0 0 0
0 0 0 0 0 0 0 0 0 0 0 0 0 0 0 0 0 0 0 0 0 0 0 0 0 0 0 0 0 0 0 0 0 0 0 0 0 0 0 0 0 0 0
0 0 0 0 0 0 0 0 0 0 0 0 0 0 0 0 0 0 0 0 0 0 0 0 0 0 0 0 0 0 0 0 0 0 0 0 0 0 0 0 0 0 0
0 0 0 0 0 0 0 0 0 0 0 0 0 0 0 0 0 0 0 0 0 0 0 0 0 0 0 0 0 0 0 0 0 0 0 0 0 0 0 0 0 0 0
0 0 0 0 0 0 0 0 0 0 0 0 0 0 0 0 0 0 0 0 0 0 0 0 0 0 0 0 0 0 0 0 0 0 0 0 0 0 0 0 0 0 0
0 0 0 0 0 0 0 0 0 0 0 0 0 0 0 0 0 0 0 0 0 0 0 0 0 0 0 0 0 0 0 0 0 0 0 0 0 0 0 0 0 0 0
0 0 0 0 0 0 0 0 0 0 0 0 0 0 0 0 0 0 0 0 0 0 0 0 0 0 0 0 0 0 0 0 0 0 0 0 0 0 0 0 0 0 0
0 0 0 0 0 0 0 0 0 0 0 0 0 0 0 0 0 0 0 0 0 0 0 0 0 0 0 0 0 0 0 0 0 0 0 0 0 0 0 0 0 0 0
0 0 0 0 0 0 0 0 0 0 0 0 0 0 0 0 0 0 0 0 0 0 0 0 0 0 0 0 0 0 0 0 0 0 0 0 0 0 0 0 0 0 0
0 0 0 0 0 0 0 0 0 0 0 0 0 0 0 0 0 0 0 0 0 0 0 0 0 0 0 0 0 0 0 0 0 0 0 0 0 0 0 0 0 0 0
0 0 0 0 0 0 0 0 0 0 0 0 0 0 0 0 0 0 0 0 0 0 0 0 0 0 0 0 0 0 0 0 0 0 0 0 0 0 0 0 0 0 0
0 0 0 0 0 0 0 0 0 0 0 0 0 0 0 0 0 0 0 0 0 0 0 0 0 0 0 0 0 0 0 0 0 0 0 0 0 0 0 0 0 0 0
0 0 0 0 0 0 0 0 0 0 0 0 0 0 0 0 0 0 0 0 0 0 0 0 0 0 0 0 0 0 0 0 0 0 0 0 0 0 0 0 0 0 0
0 0 0 0 0 0 0 0 0 0 0 0 0 0 0 0 0 0 0 0 0 0 0 0 0 0 0 0 0 0 0 0 0 0 0 0 0 0 0 0 0 0 0
0 0 0 0 0 0 0 0 0 0 0 0 0 0 0 0 0 0 0 0 0 0 0 0 0 0 0 0 0 0 0 0 0 0 0 0 0 0 0 0 0 0 0
0 0 0 0 0 0 0 0 0 0 0 0 0 0 0 0 0 0 0 0 0 0 0 0 0 0 0 0 0 0 0 0 0 0 0 0 0 0 0 0 0 0 0
0 0 0 0 0 0 0 0 0 0 0 0 0 0 0 0 0 0 0 0 0 0 0 0 0 0 0 0 0 0 0 0 0 0 0 0 0 0 0 0 0 0 0
0 0 0 0 0 0 0 0 0 0 0 0 0 0 0 0 0 0 0 0 0 0 0 0 0 0 0 0 0 0 0 0 0 0 0 0 0 0 0 0 0 0 0
0 0 0 0 0 0 0 0 0 0 0 0 0 0 0 0 0 0 0 0 0 0 0 0 0 0 0 0 0 0 0 0 0 0 0 0 0 0 0 0 0 0 0
0 0 0 0 0 0 0 0 0 0 0 0 0 0 0 0 0 0 0 0 0 0 0 0 0 0 0 0 0 0 0 0 0 0 0 0 0 0 0 0 0 0 0
0 0 0 0 0 0 0 0 0 0 0 0 0 0 0 0 0 0 0 0 0 0 0 0 0 0 0 0 0 0 0 0 0 0 0 0 0 0 0 0 0 0 0
0 0 0 0 0 0 0 0 0 0 0 0 0 0 0 0 0 0 0 0 0 0 0 0 0 0 0 0 0 0 0 0 0 0 0 0 0 0 0 0 0 0 0
0 0 0 0 0 0 0 0 0 0 0 0 0 0 0 0 0 0 0 0 0 0 0 0 0 0 0 0 0 0 0 0 0 0 0 0 0 0 0 0 0 0 0
0 0 0 0 0 0 0 0 0 0 0 0 0 0 0 0 0 0 0 0 0 0 0 0 0 0 0 0 0 0 0 0 0 0 0 0 0 0 0 0 0 0 0
0 0 0 0 0 0 0 0 0 0 0 0 0 0 0 0 0 0 0 0 0 0 0 0 0 0 0 0 0 0 0 0 0 0 0 0 0 0 0 0 0 0 0
0 0 0 0 0 0 0 0 0 0 0 0 0 0 0 0 0 0 0 0 0 0 0 0 0 0 0 0 0 0 0 0 0 0 0 0 0 0 0 0 0 0 0
Wind_Speed
12 12 14 16 17 18 19 19 19 18 15 13 13 13 13 12 11 11 15 15 16 16 14 11 13 12 11 13 14 12 13 11 10 10 11 12 14 14 12 11 11 12 12
13 13 15 16 16 17 18 18 18 17 16 14 12 12 13 11 11 12 13 15 16 15 12 13 12 12 12 13 13 13 10 10 9 9 9 9 11 12 12 12 11 12 11
13 13 14 15 15 16 17 16 18 17 16 16 12 12 10 10 10 12 12 15 16 15 14 14 13 13 12 11 13 13 13 10 10 9 8 8 8 8 9 12 12 12 11
12 12 13 15 15 15 15 16 17 16 16 16 14 16 13 12 14 12 12 16 16 15 14 14 14 13 12 12 12 12 12 11 10 9 8 10 11 10 8 7 9 11 11
12 12 13 14 14 14 14 15 16 15 16 16 16 15 13 12 12 13 15 15 14 14 15 15 14 14 12 13 14 14 13 10 10 9 9 10 10 12 11 12 10 8 9
12 12 12 13 13 13 14 14 15 15 16 16 16 15 16 16 16 17 16 14 12 13 16 16 15 14 13 13 14 14 15 12 12 10 9 8 8 8 9 11 11 11 9
12 12 13 14 14 14 15 14 15 15 16 16 16 16 16 17 16 16 15 15 13 13 16 16 15 14 14 14 14 14 13 14 13 11 9 9 8 8 9 10 10 12 10
12 11 12 13 13 14 15 15 15 15 16 16 16 15 16 12 12 15 15 14 13 13 17 18 17 17 16 15 14 12 13 12 13 13 12 9 8 7 8 8 9 10 11
12 11 12 13 13 14 14 14 15 15 16 16 16 15 16 15 15 16 15 13 14 14 17 18 17 17 16 15 15 11 13 13 12 12 12 10 8 7 7 7 8 8 10
11 11 12 12 13 13 13 14 14 15 15 16 15 13 15 15 15 15 16 16 17 17 18 18 18 17 17 16 14 13 13 14 12 10 12 11 9 8 7 7 7 8 9
11 11 12 12 13 13 13 14 14 15 15 16 16 16 15 15 15 14 16 16 16 17 18 18 18 17 17 16 14 14 15 14 13 12 12 12 12 9 8 7 7 7 8
11 12 12 13 13 14 14 14 14 15 15 15 15 15 15 15 15 15 16 16 17 16 17 17 17 17 17 16 15 16 15 14 13 13 12 12 10 12 9 7 7 7 8
12 13 13 13 13 13 13 14 14 15 15 15 15 15 15 15 15 16 16 16 16 17 16 17 17 17 17 17 16 17 15 12 11 11 11 11 11 11 10 9 7 6 7
13 13 13 13 13 13 13 14 15 15 15 15 15 15 15 15 15 15 15 16 16 16 16 16 16 16 17 16 17 17 12 10 10 9 10 10 10 11 12 9 8 7 7
14 14 14 13 14 14 14 14 15 15 15 15 15 15 15 15 15 15 15 16 16 16 16 16 15 15 14 14 19 15 11 10 9 9 9 9 12 15 13 10 8 6 4
13 13 14 14 14 14 14 15 15 15 15 14 14 15 15 15 15 16 15 16 16 16 16 15 15 16 13 22 26 19 11 9 9 9 9 9 10 13 15 17 17 14 8
13 13 13 13 13 14 14 15 15 15 14 14 14 15 15 15 16 16 16 16 15 15 15 15 15 15 17 24 26 24 12 9 8 8 9 8 9 11 9 12 15 17 19
12 12 12 12 13 13 13 13 14 14 14 14 14 15 15 16 16 16 16 16 14 14 14 15 15 15 16 23 26 25 12 7 8 8 9 10 9 9 10 8 9 11 14
10 10 11 12 13 12 13 13 14 14 14 15 15 16 16 17 17 17 16 15 14 14 14 14 15 15 16 21 25 24 10 6 7 8 9 10 8 11 11 9 9 10 10
9 10 11 12 12 12 13 13 14 14 15 16 17 17 16 16 16 16 16 14 14 13 13 13 13 14 14 19 23 23 8 7 7 7 8 11 10 11 12 9 9 10 10
10 10 11 11 11 12 12 13 14 15 16 16 17 17 16 16 16 15 14 14 13 13 13 13 12 13 14 17 20 21 10 9 8 7 7 7 11 13 15 13 11 12 10
10 11 11 12 11 11 12 14 15 16 16 16 16 16 16 15 13 15 14 14 13 13 12 12 12 10 11 13 17 20 17 14 9 8 6 6 13 16 17 14 15 15 11
10 10 11 12 11 11 12 14 15 16 16 16 16 16 16 14 14 14 14 13 12 10 10 10 9 9 9 11 16 16 17 16 9 8 12 13 16 15 13 17 17 13 9
9 10 11 12 12 13 13 13 14 15 16 17 16 15 15 14 14 12 11 11 11 11 11 9 8 8 8 9 8 8 9 11 9 7 11 15 17 14 14 13 11 10 10
8 9 9 11 13 14 13 13 14 15 16 16 15 14 13 14 13 12 11 12 11 13 12 9 8 8 8 11 14 11 9 9 8 7 6 7 7 8 8 8 8 8 8
8 9 10 11 13 13 13 14 14 15 16 14 14 12 12 11 11 11 11 14 15 18 18 17 14 9 11 13 15 15 15 14 12 8 7 8 8 8 8 7 8 8 8
Wind_Direction
15 14 9 8 4 2 359 356 354 353 353 349 343 341 339 339 339 340 339 339 339 339 337 336 334 333 328 324 321 324 320 316 309 293 277 262 253 250 250 248 249 245 242
4 6 5 5 2 359 356 352 352 350 352 347 339 336 331 333 335 335 334 336 336 337 335 336 333 331 326 323 324 323 317 315 316 304 294 272 257 240 239 242 243 245 243
358 358 359 360 359 359 355 350 349 346 349 345 340 336 335 334 338 337 334 334 333 333 333 333 332 329 327 321 321 318 316 313 309 299 288 283 270 275 241 235 238 240 240
355 355 355 357 357 356 353 348 347 346 348 346 346 343 341 339 337 335 330 330 331 331 333 332 330 329 325 321 319 318 312 307 305 303 287 284 289 284 275 249 237 238 239
352 351 355 354 354 354 352 348 346 347 349 348 347 343 341 338 333 334 332 333 331 331 332 333 329 326 324 322 319 315 310 305 300 299 298 292 283 267 266 267 260 244 237
349 348 351 352 351 353 352 348 346 347 348 347 346 344 342 339 336 338 336 334 330 330 332 332 328 325 324 322 319 315 311 305 300 296 292 291 286 282 273 264 262 261 254
346 346 348 350 350 351 351 347 346 346 348 347 346 342 342 338 336 337 334 332 330 331 331 330 326 325 324 322 320 317 312 309 305 299 293 288 283 285 283 277 272 268 266
347 346 348 348 348 348 349 347 346 345 346 345 343 341 341 337 334 333 331 329 328 327 327 327 325 324 324 323 322 316 315 313 311 303 298 290 284 280 276 274 274 269 263
347 346 346 349 348 348 348 346 344 344 344 344 341 339 339 337 334 331 330 329 328 326 328 326 326 324 323 322 323 316 317 317 315 311 307 299 288 282 277 271 264 263 263
348 347 347 350 349 347 345 345 344 342 341 341 340 336 336 336 333 330 331 330 329 328 327 327 327 325 323 323 323 317 316 320 318 315 314 313 303 292 281 274 269 260 259
349 348 349 350 348 347 346 344 343 342 341 340 338 336 335 335 333 332 332 331 329 329 328 327 326 326 325 325 321 319 317 319 320 321 321 320 316 305 291 280 270 265 259
349 347 347 347 347 347 345 342 341 341 340 338 335 334 334 334 334 334 333 331 330 329 327 327 326 326 326 325 321 319 315 314 319 324 325 326 328 323 312 298 282 270 260
349 347 348 348 346 344 341 339 339 339 337 335 333 333 334 334 334 333 332 332 330 329 329 328 326 326 326 324 322 319 312 311 319 325 326 328 333 332 326 315 300 288 272
350 348 346 346 344 341 339 336 336 336 334 333 332 333 333 332 331 331 332 332 331 330 330 328 326 326 324 323 326 322 320 322 327 331 330 331 336 336 333 325 315 299 286
348 346 345 343 341 339 337 335 333 333 332 330 329 330 329 328 328 329 331 331 332 331 329 328 328 329 326 329 328 325 328 333 335 336 334 333 343 346 345 345 342 327 304
345 345 343 341 339 337 334 331 330 328 327 325 324 325 326 327 327 327 328 330 331 331 329 329 330 330 330 330 332 339 336 337 339 339 338 338 346 351 352 359 9 13 4
343 342 340 336 333 332 329 326 324 322 321 319 319 321 322 324 324 324 325 328 329 329 328 328 329 329 329 333 334 340 337 340 344 344 342 344 348 357 356 5 16 19 24
340 337 334 330 328 326 324 320 317 316 317 317 318 321 322 321 322 323 324 325 326 326 325 326 328 327 329 334 334 337 333 340 350 348 344 344 348 8 9 13 25 26 25
338 333 329 325 323 324 323 318 316 318 319 320 323 323 322 321 322 322 321 323 324 322 323 324 326 327 329 333 335 340 330 343 351 348 346 347 350 22 23 24 33 34 28
341 334 328 324 325 327 324 319 320 322 325 326 323 322 323 323 322 319 321 321 320 320 322 321 324 326 329 334 337 344 341 348 352 350 346 353 10 38 40 36 38 38 31
340 334 327 326 328 327 323 320 322 327 328 324 322 323 325 324 320 321 321 320 320 320 320 321 324 327 332 336 340 349 357 353 352 349 347 359 31 54 55 51 48 45 38
338 335 329 326 327 325 324 323 328 329 326 325 325 327 327 326 323 324 324 324 323 321 321 322 325 330 333 338 341 350 1 2 354 347 347 20 51 61 58 53 48 45 41
335 333 326 323 326 330 331 329 330 329 328 327 329 329 329 329 329 329 329 328 327 324 321 321 325 329 333 337 343 352 0 4 6 8 30 54 58 59 54 49 46 41 38
332 329 325 325 327 333 335 334 331 330 329 330 332 333 333 334 337 337 337 336 334 330 329 334 336 335 335 342 349 358 3 5 14 26 37 51 57 56 52 47 43 39 39
326 324 323 320 327 333 335 336 336 335 333 332 335 336 336 340 342 344 343 343 341 343 347 347 344 343 343 355 13 21 17 16 27 33 46 47 47 48 48 46 43 40 38
320 320 321 326 330 332 334 338 340 338 335 336 339 338 342 345 345 342 341 346 348 351 355 357 358 355 1 15 28 29 29 31 37 44 47 48 47 45 42 41 41 38 36